CAPE
0 0 0 0 0 0 6 0 0 0 0 0 0 0 0 0 0 0 0 0 0 0 0 0 0 0 0 0 0 0 0 0 0 0 0 0 0 0 2 0 0 0 0 0
0 0 0 0 0 1 0 0 0 2 0 0 0 0 0 0 0 0 0 0 0 0 0 0 0 0 0 0 0 0 0 0 0 0 0 0 0 0 2 0 0 0 1 0
0 0 0 0 0 0 2 1 1 0 0 0 0 0 0 0 0 0 0 0 0 0 0 0 0 0 0 0 0 0 0 0 0 0 1 4 3 0 0 0 0 2 0 1
0 0 0 0 0 0 0 0 0 0 4 2 1 0 0 0 0 0 0 0 0 0 0 0 0 0 0 0 0 0 0 0 0 0 1 2 1 0 0 0 0 0 0 0
0 0 0 0 2 0 0 0 0 1 8 16 0 0 0 0 0 0 0 0 0 0 0 0 0 0 0 0 0 0 0 0 0 0 0 2 3 0 0 0 0 0 0 0
0 0 0 0 0 0 0 0 6 6 2 13 11 0 0 0 0 0 0 0 0 0 0 0 1 0 0 0 0 0 0 0 0 0 0 1 0 0 0 0 0 1 0 0
0 0 0 0 0 6 1 0 7 10 2 0 0 0 0 0 0 0 0 0 0 0 2 2 1 1 0 0 0 0 0 0 0 0 0 0 0 1 1 1 0 0 0 0
0 0 0 2 1 1 3 20 1 0 0 0 0 0 0 0 0 0 0 0 0 0 0 1 1 0 1 1 0 0 0 0 1 1 0 0 0 0 0 0 1 0 0 0
0 0 1 6 13 21 15 0 0 0 0 0 0 0 0 0 0 0 0 0 0 0 0 0 0 1 1 1 0 0 0 0 0 1 0 0 1 1 0 0 0 0 0 0
0 2 3 20 21 0 0 0 0 0 0 0 0 0 0 0 0 0 0 0 0 0 0 0 0 0 1 1 0 0 0 0 0 1 1 1 1 1 1 0 0 1 1 0
0 3 11 5 3 0 0 0 0 0 0 0 0 0 0 0 0 0 0 0 0 0 0 0 0 0 0 2 1 0 0 1 1 1 1 0 0 1 0 0 0 0 0 1
0 0 7 0 0 0 0 0 0 0 0 0 0 0 0 0 0 0 0 0 0 0 1 0 0 0 0 0 4 1 0 0 1 1 1 1 0 0 0 0 0 0 0 1
0 3 2 0 0 0 0 0 0 0 0 0 0 0 0 0 0 0 0 0 0 0 0 1 0 0 0 0 1 2 1 1 1 1 1 1 0 1 1 0 0 0 0 1
0 4 1 0 0 0 0 0 0 0 0 0 0 0 0 0 0 0 0 0 0 0 0 0 0 0 0 0 0 1 1 0 1 0 1 0 0 0 1 1 1 1 0 0
2 2 0 0 0 0 0 0 0 0 0 0 0 0 0 0 0 0 0 0 0 0 0 0 0 0 0 0 0 0 1 0 1 1 1 1 1 1 1 1 1 1 0 0
7 0 0 0 0 0 0 0 0 0 0 0 0 0 0 0 0 0 0 0 0 0 0 0 0 0 0 0 0 0 0 0 0 0 1 1 1 1 1 1 1 0 1 0
0 0 0 0 0 0 0 0 0 0 0 0 0 0 0 0 0 0 0 0 0 0 0 0 0 0 0 0 1 0 0 0 0 0 0 0 1 1 1 1 1 1 1 1
0 0 0 0 0 0 0 0 0 0 0 0 0 0 0 0 0 0 0 0 0 0 0 0 0 0 0 0 0 0 0 0 0 0 0 0 0 0 0 0 0 1 0 0
0 0 0 0 0 0 0 0 0 0 0 0 0 0 0 0 0 0 0 0 0 0 0 0 0 1 1 0 0 0 0 0 0 0 0 0 0 0 0 0 0 1 0 0
0 0 0 0 0 0 0 0 0 0 0 0 0 0 0 0 0 0 0 0 0 0 0 0 0 0 0 0 0 0 0 0 0 0 0 0 0 0 0 0 0 0 0 0
0 0 0 0 0 0 0 0 0 0 0 0 0 0 0 0 0 0 0 0 0 0 1 0 0 0 0 0 0 0 0 0 0 0 0 0 0 0 0 0 0 0 0 0
0 0 0 0 0 0 0 0 0 0 0 0 0 0 0 0 0 0 0 0 0 0 0 0 0 0 0 0 0 0 0 0 0 0 0 0 0 0 0 0 0 0 0 0
0 0 0 0 0 0 0 0 0 0 0 0 0 0 0 0 0 0 0 0 0 0 0 0 0 0 0 0 0 0 0 0 0 0 0 0 0 0 0 0 0 0 0 0
0 0 0 0 0 0 0 0 0 0 0 0 0 0 0 0 0 0 0 0 0 0 0 0 0 0 0 0 0 0 0 0 0 0 0 0 0 0 0 0 1 1 1 0
0 0 0 0 0 0 0 0 0 0 0 0 0 0 0 0 0 0 0 0 0 0 0 0 0 0 0 0 0 0 0 0 0 0 0 0 0 0 0 0 0 0 0 1
0 0 0 0 0 0 0 0 0 0 0 0 0 0 0 0 0 0 0 0 0 0 0 0 0 0 0 0 0 0 0 0 0 0 0 0 0 0 0 1 0 1 0 1
0 0 0 0 0 0 0 0 0 0 0 0 0 0 0 0 0 0 0 0 0 0 0 0 0 0 0 0 0 0 0 0 0 0 0 0 0 0 0 1 1 1 1 1
CIN
-0 -0 -0 -0 -0 -0 -16 -0 -0 -0 -0 -0 -0 -0 -0 -0 -0 -0 -0 -0 -0 -0 -0 -0 -0 -0 -0 -0 -0 -0 -0 -0 -0 -0 -0 -0 -0 -0 -3 -0 -0 -0 -0 -0
-0 -0 -0 -0 -0 -8 -7 -0 -0 -16 -0 -0 -0 -0 -0 -0 -0 -0 -0 -0 -0 -0 -0 -0 -0 -0 -0 -0 -0 -0 -0 -0 -0 -0 -0 -11 -9 -0 -11 -0 -0 -1 -0 -0
-0 -0 -0 -0 -0 -9 -12 -6 -11 -0 -2 -0 -0 -0 -0 -0 -0 -0 -0 -0 -0 -0 -0 -0 -0 -0 -0 -0 -0 -0 -0 -0 -0 -1 -14 -10 -15 -0 -0 -0 -0 -0 -0 -0
-0 -0 -0 -0 -0 -0 -0 -0 -0 -0 -24 -28 -20 -0 -0 -0 -0 -0 -0 -0 -0 -0 -0 -0 -0 -0 -0 -0 -0 -0 -0 -0 -0 -0 -13 -14 -10 -0 -0 -1 -1 -0 -0 -0
-0 -0 -0 -0 -4 -6 -0 -0 -0 -5 -16 -29 -0 -0 -0 -0 -0 -0 -0 -0 -0 -0 -0 -0 -0 -0 -0 -0 -0 -0 -0 -0 -2 -12 -10 -8 -4 -1 -0 -1 -0 -0 -0 -0
-0 -0 -0 -0 -0 -5 -1 -0 -5 -5 -11 -6 -4 -0 -0 -0 -0 -0 -0 -0 -0 -0 -0 -0 -0 -0 -0 -0 -0 -0 -0 -0 -0 -2 -13 -4 -2 -3 -0 -0 -0 -0 -0 -0
-0 -0 -0 -3 -2 -14 -1 -0 -1 -2 -3 -0 -0 -0 -0 -0 -0 -0 -0 -0 -0 -0 -0 -0 -0 -0 -0 -0 -0 -0 -0 -0 -0 -0 -0 -7 -4 -1 -1 -0 -0 -0 -1 -1
-0 -0 -0 -9 -4 -1 -8 -4 -1 -0 -0 -0 -0 -0 -0 -0 -0 -0 -0 -0 -0 -0 -0 -0 -0 -0 -0 -0 -0 -0 -0 -0 -0 -0 -0 -0 -0 -0 -0 -0 -0 -0 -0 -0
-0 -0 -11 -12 -17 -10 -13 -0 -0 -0 -0 -0 -0 -0 -0 -0 -0 -0 -0 -0 -0 -0 -0 -0 -0 -0 -0 -0 -0 -0 -0 -0 -0 -0 -0 -0 -0 -0 -0 -0 -0 -0 -0 -1
-0 -13 -3 -5 -12 -0 -0 -0 -0 -0 -0 -0 -0 -0 -0 -0 -0 -0 -0 -0 -0 -0 -0 -0 -0 -0 -0 -0 -0 -0 -0 -0 -0 -0 -0 -0 -0 -0 -0 -0 -0 -0 -0 -0
-0 -6 -8 -15 -35 -0 -0 -0 -0 -0 -0 -0 -0 -0 -0 -0 -0 -0 -0 -0 -0 -1 -0 -0 -0 -0 -0 -0 -0 -0 -0 -0 -0 -0 -0 -0 -0 -0 -0 -0 -0 -0 -0 -0
-0 -0 -24 -0 -0 -0 -0 -0 -0 -0 -0 -0 -0 -0 -0 -0 -0 -0 -0 -0 -0 -0 -0 -0 -0 -0 -0 -0 -0 -0 -0 -0 -0 -0 -0 -0 -0 -0 -0 -0 -0 -0 -0 -0
-2 -45 -53 -0 -0 -0 -0 -0 -0 -0 -0 -0 -0 -0 -0 -0 -0 -0 -0 -0 -0 -0 -0 -2 -0 -0 -0 -0 -0 -0 -0 -0 -0 -0 -0 -0 -0 -0 -0 -0 -0 -0 -1 -0
-4 -51 -9 -0 -0 -0 -0 -0 -0 -0 -0 -0 -0 -0 -0 -0 -0 -0 -0 -0 -0 -0 -0 -0 -2 -1 -0 -0 -1 -0 -0 -0 -0 -0 -0 -0 -0 -0 -0 -0 -0 -0 -0 -0
-26 -39 -0 -0 -0 -0 -0 -0 -0 -0 -0 -0 -0 -0 -0 -0 -0 -0 -0 -0 -0 -0 -0 -1 -0 -0 -0 -1 -1 -1 -0 -0 -0 -0 -0 -0 -0 -0 -0 -0 -0 -0 -0 -0
-44 -0 -0 -0 -0 -0 -0 -0 -0 -0 -0 -0 -0 -0 -0 -0 -0 -0 -0 -0 -0 -0 -0 -0 -0 -0 -0 -0 -1 -1 -0 -0 -0 -0 -0 -0 -0 -0 -0 -0 -0 -0 -0 -0
-0 -0 -0 -0 -0 -0 -0 -0 -0 -0 -0 -0 -0 -0 -0 -0 -0 -0 -0 -0 -0 -0 -0 -0 -0 -0 -0 -0 -1 -0 -0 -0 -0 -0 -0 -0 -0 -0 -0 -0 -0 -0 -0 -0
-0 -0 -0 -0 -0 -0 -0 -0 -0 -0 -0 -0 -0 -0 -0 -0 -0 -0 -0 -0 -0 -0 -0 -0 -0 -0 -0 -0 -0 -0 -0 -0 -0 -0 -0 -0 -0 -0 -0 -0 -0 -0 -0 -0
-0 -0 -0 -0 -0 -0 -0 -0 -0 -0 -0 -0 -0 -0 -0 -0 -0 -0 -0 -0 -0 -0 -0 -0 -1 -1 -1 -0 -0 -0 -0 -0 -0 -0 -0 -0 -0 -0 -0 -0 -0 -0 -0 -0
-0 -0 -0 -0 -0 -0 -0 -0 -0 -0 -0 -0 -0 -0 -0 -0 -0 -0 -0 -0 -0 -0 -0 -0 -0 -0 -0 -0 -0 -0 -0 -0 -0 -0 -0 -0 -0 -0 -0 -0 -0 -0 -0 -0
-0 -0 -0 -0 -0 -0 -0 -0 -0 -0 -0 -0 -0 -0 -0 -0 -0 -0 -0 -0 -0 -0 -0 -0 -0 -0 -0 -0 -1 -0 -1 -0 -0 -0 -0 -0 -0 -0 -0 -0 -0 -0 -0 -0
-0 -0 -0 -0 -0 -0 -0 -0 -0 -0 -0 -0 -0 -0 -0 -0 -0 -0 -0 -0 -0 -0 -0 -1 -0 -0 -1 -1 -1 -0 -0 -0 -1 -0 -0 -0 -0 -0 -0 -0 -0 -0 -0 -0
-0 -0 -0 -0 -0 -0 -0 -0 -0 -0 -0 -0 -0 -0 -0 -0 -0 -0 -0 -0 -0 -0 -0 -1 -3 -0 -0 -0 -0 -0 -0 -0 -0 -0 -0 -0 -0 -0 -0 -0 -0 -0 -1 -0
-0 -0 -0 -0 -0 -0 -0 -0 -0 -0 -0 -0 -0 -0 -0 -0 -0 -0 -0 -0 -0 -0 -0 -0 -0 -0 -0 -0 -0 -0 -0 -0 -0 -0 -0 -0 -0 -0 -0 -0 -0 -0 -0 -0
-0 -0 -0 -0 -0 -0 -0 -0 -0 -0 -0 -0 -0 -0 -0 -0 -0 -0 -0 -0 -0 -0 -0 -0 -0 -0 -0 -0 -0 -0 -0 -0 -0 -0 -0 -0 -0 -0 -0 -0 -0 -0 -0 -0
-0 -0 -0 -0 -0 -0 -0 -0 -0 -0 -0 -0 -0 -0 -0 -0 -0 -0 -0 -0 -0 -0 -0 -0 -0 -0 -0 -0 -0 -0 -0 -0 -0 -0 -0 -0 -0 -0 -0 -0 -0 -0 -0 -0
-0 -0 -0 -0 -0 -0 -0 -0 -0 -0 -0 -0 -0 -0 -0 -0 -0 -0 -0 -0 -0 -0 -0 -0 -0 -0 -0 -0 -0 -0 -0 -0 -0 -0 -0 -0 -0 -0 -0 -0 -0 -0 -0 -0
Wind_Speed
24 23 25 26 24 19 17 13 12 12 14 16 16 14 16 16 18 20 23 25 27 26 25 22 20 22 25 26 30 35 37 36 34 32 34 33 34 36 35 35 34 29 27 28
26 27 28 29 27 25 27 28 25 21 19 16 14 15 18 19 21 23 24 24 26 25 23 24 23 26 26 26 30 34 36 37 34 32 33 32 33 36 36 35 34 28 27 25
23 20 20 25 23 25 26 25 23 22 17 16 17 18 19 22 23 22 24 24 27 24 26 28 29 28 26 25 30 34 36 36 34 33 33 32 32 34 38 35 32 29 27 26
21 20 23 18 16 20 24 23 21 20 19 17 17 17 18 17 21 25 25 26 25 25 27 30 31 29 24 27 31 36 38 36 33 33 32 32 32 34 34 33 31 28 25 23
21 22 19 16 18 17 18 20 19 19 20 17 17 19 23 21 23 24 25 24 25 27 29 31 33 32 26 29 31 36 38 37 34 32 31 33 34 32 33 31 30 27 26 24
18 19 19 15 16 16 15 13 17 18 19 17 17 21 20 22 24 25 26 27 28 30 31 32 33 31 29 30 31 35 37 35 34 30 30 33 36 33 29 32 30 27 26 23
17 16 14 14 15 14 12 13 14 19 20 20 21 19 19 22 25 26 27 28 29 29 31 32 33 32 29 29 31 30 34 35 33 30 27 26 29 30 30 31 31 28 26 23
14 15 14 13 16 14 14 15 20 21 20 21 20 20 23 25 26 27 28 30 30 30 31 32 33 32 30 31 31 27 33 35 34 31 23 23 22 22 26 27 30 30 26 23
13 13 14 18 17 16 16 18 19 20 21 21 22 23 24 25 27 28 28 28 29 30 31 32 34 33 31 31 30 29 32 36 34 29 23 23 17 17 20 23 24 27 26 23
15 14 17 17 18 20 20 20 21 22 22 23 24 24 25 25 26 28 29 29 29 30 32 33 33 33 33 30 29 28 31 35 35 36 28 20 18 19 21 24 23 22 23 22
15 15 19 19 18 19 20 22 23 24 24 24 24 25 26 26 26 28 29 30 30 30 31 32 32 32 32 31 29 26 28 30 33 32 20 11 18 25 27 26 24 23 22 20
11 13 15 16 18 19 21 22 23 24 25 26 27 27 27 27 27 27 30 30 31 30 30 32 32 31 29 28 31 26 29 27 23 17 23 18 25 29 29 31 27 25 25 23
15 17 19 20 20 22 23 23 25 26 27 27 27 28 28 27 27 27 29 31 31 30 28 31 29 27 19 19 22 18 6 15 19 36 22 25 27 27 28 30 29 25 23 23
20 19 19 19 21 23 25 26 28 29 28 29 28 28 29 31 29 29 31 30 29 29 25 16 9 12 7 5 10 7 6 6 15 17 18 23 31 32 32 32 32 29 25 22
19 19 21 23 24 24 26 27 29 30 29 29 28 29 31 32 32 30 28 26 25 19 14 15 14 10 12 8 5 5 6 6 11 20 12 24 28 35 35 35 35 33 30 29
22 21 22 23 24 26 28 30 31 30 30 30 31 30 31 31 29 28 26 25 21 17 19 18 17 13 13 14 13 11 13 10 17 20 22 23 25 28 30 31 33 34 32 30
22 22 23 24 27 29 31 32 30 30 28 28 28 29 29 28 28 27 25 23 22 21 21 21 19 17 17 17 18 19 20 21 21 24 24 25 26 28 29 28 26 24 27 25
22 24 25 28 32 35 34 32 31 30 30 29 29 29 31 29 29 27 24 24 24 24 22 21 21 21 21 20 21 21 21 23 23 24 24 24 25 25 26 26 27 28 29 28
25 27 30 33 36 36 35 32 29 30 29 30 29 28 29 31 30 28 26 26 25 26 23 22 23 24 23 22 23 24 24 25 26 26 26 25 26 27 26 25 25 24 23 24
27 30 34 37 38 36 34 30 30 30 28 28 28 28 28 27 27 27 27 28 26 27 24 24 25 26 25 25 26 27 28 28 27 26 26 27 27 28 28 28 28 28 27 27
32 34 38 39 39 35 33 32 31 30 29 29 30 30 30 29 27 26 28 28 27 28 28 28 28 28 28 28 29 30 31 31 32 32 32 31 31 30 29 28 28 28 29 30
35 38 40 40 39 36 33 32 32 32 31 31 31 31 31 31 31 30 28 31 29 29 28 28 27 26 26 27 28 29 30 30 31 31 32 34 35 36 34 33 33 31 30 31
39 41 42 41 39 37 35 34 33 32 32 32 32 32 32 30 29 30 31 27 28 28 27 25 24 23 25 25 26 28 30 30 31 33 32 33 33 33 35 35 32 31 31 31
42 43 43 41 40 38 36 35 33 32 32 32 32 31 31 31 27 25 27 26 25 24 23 22 22 23 25 26 27 28 29 29 31 30 32 32 32 32 32 32 34 32 32 31
43 44 44 42 40 38 37 35 34 33 34 33 31 30 28 26 25 26 26 25 24 23 23 22 23 24 25 26 27 27 27 28 29 30 31 33 33 33 33 33 31 31 31 32
44 44 43 42 40 38 36 34 34 34 33 33 31 29 27 26 26 25 24 23 22 21 21 21 22 23 24 26 27 28 28 29 29 30 31 32 32 33 33 33 33 32 33 34
40 40 40 39 39 38 35 33 32 33 31 29 28 27 24 23 22 21 21 20 20 20 20 20 21 22 23 24 25 26 27 28 29 30 31 32 33 34 34 34 33 33 33 34
Wind_Direction
49 48 42 38 39 61 72 112 96 47 20 339 354 12 17 14 6 358 355 353 352 354 356 1 9 4 359 359 357 357 359 0 1 2 3 4 2 1 0 358 358 358 357 355
56 66 63 61 70 79 76 77 79 73 64 48 29 4 360 358 356 352 353 354 355 358 3 2 0 357 359 2 0 359 360 2 6 6 5 7 6 4 3 4 4 3 1 0
65 85 84 68 79 83 80 81 79 68 88 59 21 10 2 358 356 1 359 359 354 2 359 355 354 356 1 5 2 0 1 5 8 7 8 8 9 9 8 10 11 13 14 15
71 76 60 96 103 91 71 64 58 51 48 42 30 18 12 18 10 357 358 356 5 4 359 355 354 359 9 5 1 359 1 6 10 10 13 13 15 13 15 17 18 20 21 18
67 65 84 99 93 92 75 53 51 37 27 34 29 24 5 10 6 4 3 5 2 359 355 352 350 353 1 358 360 357 1 5 10 14 17 18 18 20 23 24 24 25 25 27
77 64 59 94 77 71 61 55 38 34 26 25 19 10 13 6 7 4 1 357 354 352 350 347 347 349 353 355 358 357 0 6 11 19 25 24 25 27 31 29 29 30 31 35
75 70 81 83 58 54 51 42 39 22 19 21 13 17 19 9 3 2 1 359 358 359 356 354 351 351 353 356 356 5 4 8 13 23 32 34 29 32 32 32 33 35 38 43
72 63 55 55 32 37 40 38 23 21 25 23 25 22 13 7 6 6 3 1 3 3 1 1 3 360 359 357 357 12 2 4 13 22 38 36 33 34 35 36 36 39 44 50
71 62 50 42 46 45 37 31 31 31 29 28 20 14 14 12 9 9 10 10 9 9 7 4 2 2 357 353 350 11 5 2 11 23 39 37 34 32 36 38 41 43 48 55
47 51 38 42 33 44 42 42 36 32 30 24 21 19 18 22 23 20 19 18 18 15 10 7 1 360 0 345 347 18 14 14 14 4 35 42 42 42 43 43 47 49 51 57
44 56 37 37 43 50 45 40 36 34 31 29 34 34 35 33 33 29 22 19 18 16 13 9 3 360 356 351 353 347 30 19 353 349 58 52 55 50 48 50 54 55 57 62
58 60 46 46 52 52 44 41 39 36 39 45 44 41 38 34 36 34 30 27 26 29 28 18 11 1 351 347 5 350 358 346 333 61 57 61 55 51 53 52 56 60 62 65
69 69 66 64 57 54 52 50 48 49 54 52 45 45 48 49 45 46 42 36 33 33 41 29 2 354 339 336 346 344 46 73 73 36 66 60 55 56 54 54 58 63 64 65
84 75 61 61 64 62 58 55 58 61 57 59 61 59 58 53 55 52 44 46 51 51 62 91 96 87 67 22 346 343 79 60 78 72 70 67 58 58 58 56 56 58 61 64
77 66 72 76 71 67 64 66 68 71 72 69 70 65 60 56 58 64 67 74 75 85 99 99 96 95 89 81 63 15 43 43 74 73 68 67 62 54 53 55 56 58 60 62
84 76 77 75 76 76 77 82 87 93 91 83 74 75 73 73 78 83 84 85 87 91 95 94 95 94 93 91 87 87 85 69 80 76 72 70 67 64 62 60 59 58 60 60
85 80 81 84 87 92 98 111 116 108 104 97 94 91 92 89 90 92 93 93 92 93 95 94 93 92 92 91 89 88 86 82 79 76 74 71 69 66 64 64 64 63 62 60
92 94 95 98 103 111 124 124 118 113 106 103 101 97 94 93 95 96 96 97 96 94 94 94 93 93 90 89 88 88 86 82 79 77 75 72 70 70 67 67 65 63 61 60
100 101 105 110 122 129 130 130 129 119 114 107 104 102 101 97 97 97 98 97 95 94 92 94 93 92 90 87 88 87 84 81 78 75 74 72 70 68 66 64 64 62 60 58
106 111 116 122 132 140 137 136 128 122 118 114 110 107 105 106 104 101 99 97 96 97 97 94 93 90 89 87 85 82 79 77 76 73 70 68 66 64 63 61 60 58 57 55
118 121 125 128 136 148 138 132 125 121 120 118 113 108 104 105 109 106 102 100 100 100 98 96 94 92 89 86 84 81 77 75 71 68 65 63 61 59 57 56 54 53 50 49
127 130 133 134 135 146 142 136 126 122 120 114 114 115 113 111 109 108 107 102 103 102 101 98 95 93 90 87 84 80 77 74 70 66 63 58 55 51 49 48 46 45 44 42
135 137 139 138 138 142 143 134 131 129 120 117 119 123 120 119 117 110 106 110 107 104 102 99 95 91 87 83 79 75 70 67 63 59 57 54 51 49 44 42 41 40 38 37
140 143 145 143 141 142 141 143 138 131 131 133 133 131 125 120 121 120 114 113 109 105 101 98 92 86 81 76 72 69 65 60 56 53 50 48 45 43 41 39 36 36 34 32
145 147 148 147 146 147 147 142 138 139 135 140 139 136 133 130 125 118 113 110 107 103 96 91 86 80 75 71 66 62 59 55 50 47 44 40 39 36 35 34 33 31 30 28
149 151 153 154 154 148 142 139 136 139 133 134 143 136 131 125 115 111 107 104 100 97 90 83 77 72 66 60 56 52 49 46 43 41 37 35 33 31 29 28 28 27 25 23
149 150 151 152 156 154 147 144 138 142 141 136 134 137 124 115 109 104 100 96 91 85 79 72 66 61 56 52 48 45 41 38 36 34 32 30 28 26 25 24 23 23 22 19